This is the latest recevied weather packets stored in our database for station/object S56WDN-10. If no packets are shown the sender has not sent any weather packets the latest 10 day(s).
| Time | Temp. | Humidity | Pressure | Rain* | Wind** | Luminosity | Snow |
|---|---|---|---|---|---|---|---|
| 1778152912 | 22.22° C | 56% | 1012.5 hPa | 0 mm | - | - | - |
| 1778152612 | 22.22° C | 55% | 1012.6 hPa | 0 mm | - | - | - |
| 1778152312 | 22.78° C | 55% | 1012.6 hPa | 0 mm | - | - | - |
| 1778152012 | 22.78° C | 54% | 1012.6 hPa | 0 mm | - | - | - |
| 1778151712 | 22.78° C | 54% | 1012.6 hPa | 0 mm | - | - | - |
| 1778151412 | 22.22° C | 57% | 1012.6 hPa | 0 mm | - | - | - |
| 1778151112 | 22.22° C | 57% | 1012.5 hPa | 0 mm | - | - | - |
| 1778150812 | 21.11° C | 57% | 1012.6 hPa | 0 mm | - | - | - |
| 1778150512 | 21.11° C | 58% | 1012.6 hPa | 0 mm | - | - | - |
| 1778150212 | 21.11° C | 58% | 1012.7 hPa | 0 mm | - | - | - |
| 1778149912 | 21.11° C | 58% | 1012.8 hPa | 0 mm | - | - | - |
| 1778149612 | 21.11° C | 58% | 1012.9 hPa | 0 mm | - | - | - |
| 1778149312 | 20.56° C | 58% | 1012.9 hPa | 0 mm | - | - | - |
| 1778149012 | 20.56° C | 59% | 1012.7 hPa | 0 mm | - | - | - |
| 1778148712 | 20° C | 61% | 1012.8 hPa | 0 mm | - | - | - |
| 1778148412 | 20° C | 60% | 1012.9 hPa | 0 mm | - | - | - |
| 1778148112 | 20.56° C | 58% | 1012.9 hPa | 0 mm | - | - | - |
| 1778147812 | 20.56° C | 58% | 1013 hPa | 0 mm | - | - | - |
| 1778147516 | 20.56° C | 60% | 1013.3 hPa | 0 mm | - | - | - |
| 1778147212 | 20.56° C | 60% | 1013.2 hPa | 0 mm | - | - | - |
| 1778146912 | 20.56° C | 60% | 1013.3 hPa | 0 mm | - | - | - |
| 1778146612 | 20.56° C | 60% | 1013 hPa | 0 mm | - | - | - |
| 1778146312 | 20.56° C | 60% | 1013.1 hPa | 0 mm | - | - | - |
| 1778146012 | 21.11° C | 61% | 1013.2 hPa | 0 mm | - | - | - |
| 1778145712 | 20.56° C | 61% | 1013.2 hPa | 0 mm | - | - | - |
* Rain latest hour (hover to see other rain measurements)
** Current wind speed in m/s (hover to see current wind gust speed)